Regional Weather Roundup
Issued by NWS Pendleton, OR

Home | Current Version | Previous Version | Text Only | Print | Product List | Glossary On
Versions: 1 2 3 4 5 6 7 8 9 10 11 12 13 14 15 16 17 18 19 20 21 22 23 24 25 26 27 28 29 30 31 32 33 34 35 36 37 38 39 40 41 42 43 44 45 46 47 48 49 50
000
ASUS46 KPDT 290625
RWRPDT
PENDLETON REGIONAL WEATHER ROUNDUP
NATIONAL WEATHER SERVICE PENDLETON OREGON
1100 PM PDT FRI AUG 28 2015

NOTE: FAIR INDICATES FEW OR NO CLOUDS BELOW 12,000 FEET WITH NO
SIGNIFICANT WEATHER AND/OR OBSTRUCTIONS TO VISIBILITY.

# INDICATES UNOFFICIAL STATION AND DATA

WAZ520-290710-
EAST SLOPES OF WASHINGTON CASCADES

CITY            SKY/WX      TMP DP  RH  WIND    PRES   REMARKS
#BULLFROG 2SW   N/A         61  50  67  S1      27.43F
#BUMPING DAM    N/A         59  N/A N/A N7      N/A
#CLE ELUM HS    N/A         63  51  65  CALM    29.76F
#CLE ELUM LAKE  N/A         64  50  60  CALM    29.68S
#CLIFFDEL 2NW   N/A         63  47  56  NW1     N/A
#GLENWOOD       N/A         64  54  70  CALM    29.64F
#MANASTASH CYN  N/A         62  48  60  CALM    29.83F
#NELSON         N/A         63  54  72  CALM    29.71F
#NELSON 3SW     N/A         61  49  65  CALM    29.89F
#NILE           N/A         63  53  70  CALM    28.99F
#RONALD 2NW     N/A         65  45  48  CALM    29.72F
#SNOWDEN        N/A         65  35  33  CALM    N/A
#TEANAWAY 4NE   N/A         64  53  67  CALM    N/A
#TROUT LAKE 1NE N/A         65  55  70  CALM    29.65F
$$

WAZ521-290710-
SIMCOE HIGHLANDS

CITY            SKY/WX      TMP DP  RH  WIND    PRES   REMARKS
#BICKLETON HS   N/A         69  38  32  NE6     N/A
#CENTERVILLE 4W N/A         70  50  49  CALM    29.52F
#GOLDENDALE     N/A         72  46  39  E1      N/A
#GOLDENDALE 1NE N/A         72  33  24  CALM    N/A
#GOLDENDALE 5WNWN/A         69  49  49  CALM    29.64F
#GOODNOE HILLS  N/A         77  48  36  NE3     N/A
#LYLE 6NE       N/A         71  54  55  CALM    29.62F
$$

WAZ026-290710-
KITTITAS VALLEY

CITY            SKY/WX      TMP DP  RH  WIND    PRES   REMARKS
ELLENSBURG AP   CLOUDY      68  51  55  E5      29.78F
6HR MIN TEMP:   67; 6HR MAX TEMP:   81;

YTC-OPS AREA    MOCLDY      69  46  44  N3      29.83F
6HR MIN TEMP:   68; 6HR MAX TEMP:   73;

#ELLENSBURG CWU N/A         67  55  65  CALM    29.65F
#ELLENSBURG 3NE N/A         64  53  67  CALM    29.79F
#ELLENSBURG 1E  N/A         64  52  65  CALM    N/A
#KITTITAS 4N    N/A         68  49  51  NW1     29.79F
#KITTITAS 3S    N/A         60  57  90  CALM    29.67F
#THORP 6N       N/A         66  50  56  CALM    29.71F
$$

WAZ027-290710-
YAKIMA VALLEY

CITY            SKY/WX      TMP DP  RH  WIND    PRES   REMARKS
SUNNYSIDE AP    CLOUDY      67  59  75  N3      29.70F
YAKIMA AIRPORT  CLOUDY      69  55  61  W8      29.75F
6HR MIN TEMP:   68; 6HR MAX TEMP:   85;

YAKIMA-VAGABOND MOCLDY      70  48  46  SW1     29.76F
6HR MIN TEMP:   69; 6HR MAX TEMP:   82;

#DONALD 2NE     N/A         75  38  26  NW1     28.56F
#GRANDVIEW      N/A         71  54  55  CALM    29.67F
#MABTON         N/A         69  59  70  W1      29.70F
#MOXEE 2E       N/A         68  40  36  CALM    29.68F
#NACHES 2SW     N/A         66  57  73  CALM    29.78F
#OUTLOOK DOT    N/A         N/A N/A N/A CALM    N/A
#SELAH 8E       N/A         71  45  39  SE8     N/A
#TERRACE HTS    N/A         69  54  59  CALM    29.66F
#TOPPENISH      N/A         71  57  61  E3      29.61F
#WAPATO 4NE     N/A         75  38  26  NW1     28.56F
#W YAKIMA       N/A         71  55  57  NW1     29.67F
#WHITE SWAN 5E  N/A         67  58  73  NW2     29.69F
#WILEY CITY 3W  N/A         68  48  49  CALM    29.72F
$$

WAZ028-290710-
LOWER COLUMBIA BASIN...WASHINGTON

CITY            SKY/WX      TMP DP  RH  WIND    PRES   REMARKS
PASCO           CLOUDY      69  57  66  NW5     29.69F SMOKE
6HR MIN TEMP:   69; 6HR MAX TEMP:   88;

#BENTON CITY    N/A         75  52  45  N1      29.57F
#CONNELL 5N     N/A         74  46  37  N5      29.68F
#CONNELL 5NW    N/A         74  47  38  N7      29.65F
#ELTOPIA 6NW    N/A         72  52  49  N7      28.69F
#KAHLOTUS       N/A         75  45  34  S8      29.66F
#KENNEWICK      N/A         61  50  67  S1      27.43F
#KENNEWICK 3S   N/A         73  53  49  CALM    29.66F
#PATERSON       N/A         73  53  49  W1      29.64F
#PROSSER        N/A         72  49  44  CALM    29.67F
#SAGEMOOR 2W    N/A         71  54  55  N2      29.51F
#TOUCHET 2S     N/A         73  56  55  CALM    29.64F
#WEST PASCO     N/A         74  55  51  CALM    29.64F
$$

WAZ029-290710-
FOOTHILLS OF THE BLUES...WASHINGTON

CITY            SKY/WX      TMP DP  RH  WIND    PRES   REMARKS
WALLA WALLA AP  CLOUDY      76  46  34  S13     29.72S
6HR MIN TEMP:   74; 6HR MAX TEMP:   87;

#DAYTON SCHOOL  N/A         75  41  29  VRB1    29.75F
#LOWDEN 2SE     N/A         69  54  59  CALM    29.65F
#PLEASANT VIEW 1N/A         73  44  35  N1      29.70F
#PRESCOTT       N/A         72  50  46  CALM    29.64F
#SUDBURY        N/A         69  N/A N/A CALM    N/A
#WHITMAN COLLEGEN/A         72  52  49  SE5     29.70F
#WAITSBURG 8N   N/A         75  21  13  NW5     29.56F
#WALLA WALLA U  N/A         72  54  53  CALM    29.65F
#WHITMAN MISSIONN/A         71  54  55  CALM    29.67F
$$

WAZ030-290710-
BLUE MOUNTAINS...WASHINGTON

CITY            SKY/WX      TMP DP  RH  WIND    PRES   REMARKS
$$

ORZ009-041-WAZ024-290710-
COLUMBIA RIVER GORGE

CITY            SKY/WX      TMP DP  RH  WIND    PRES   REMARKS
THE DALLES AP   CLOUDY      76  54  46  CALM    29.67F
6HR MIN TEMP:   73; 6HR MAX TEMP:   87;

#ARLINGTON AIRPON/A         75  49  40  CALM    N/A
#CELILO DOT     N/A         77  56  48  SW2     N/A
#MOSIER 1S      N/A         71  41  34  CALM    29.70F
#RUFUS DOT      N/A         77  57  50  E2      N/A

$$

ORZ510-290710-
NORTH CENTRAL OREGON

CITY            SKY/WX      TMP DP  RH  WIND    PRES   REMARKS
#CHENOWITH 1W   N/A         70  50  49  NW8     N/A
#DUFUR 9E       N/A         71  50  47  CALM    29.70F
#GRASS VALLEY 1SN/A         67  49  52  N1      29.68F
#KENT DOT       N/A         69  45  42  N6      N/A
#MAUPIN SCHOOL  N/A         74  52  46  CALM    29.73F
#MORO SCHOOL    N/A         68  54  61  CALM    29.75F
#SHANIKO 5WSW   N/A         68  44  42  NE17    N/A
#SHANIKO 4NW    N/A         67  44  43  E15     29.83F
#TYGH VALLEY 2NEN/A         73  52  48  CALM    29.65F
#WAPANITIA AIRPON/A         68  50  53  CALM    29.67F
#WASCO AIRPORT  N/A         71  48  44  CALM    N/A
#WASCO 5NE      N/A         71  50  47  CALM    29.65F
$$

ORZ511-290710-
CENTRAL OREGON

CITY            SKY/WX      TMP DP  RH  WIND    PRES   REMARKS
BEND AIRPORT    CLOUDY      68  45  44  NW5     29.81F
PRINEVILLE AP   CLOUDY      68  45  44  SW12    29.79F
REDMOND AIRPORT CLOUDY      69  46  44  NW8     29.79F
6HR MIN TEMP:   69; 6HR MAX TEMP:   84;

#BEND-AWBREY    N/A         68  47  47  CALM    29.64F
#BEND-KIM LN    N/A         69  48  47  NW2     29.79F
#CULVER         N/A         68  49  51  CALM    29.73F
#LAKE BILLY CHINN/A         71  12  10  NW3     29.81F
#MADRAS         N/A         69  49  49  N6      N/A
#POWELL BUTTE 3EN/A         66  43  43  E1      N/A
#POWELL BUTTE   N/A         69  45  42  NW8     29.45F
#WARM SPRINGS   N/A         75  50  41  S3      29.72F

$$


ORZ509-290710-
EAST SLOPES OF OREGON CASCADES

CITY            SKY/WX      TMP DP  RH  WIND    PRES   REMARKS
#BLUE BOX PASS  N/A         63   7  11  CALM    N/A
#CAMP SHERMAN   N/A         63  42  46  CALM    29.63F
#LA PINE 4NW    N/A         61  44  53  CALM    29.69F
#SISTERS AIRPOR N/A         67  52  59  N1      30.17S
#SISTERS 1NW    N/A         67  42  40  N6      N/A
#SISTERS 3N     N/A         65  44  46  CALM    29.84S
#SUNRIVER       N/A         63  47  56  CALM    29.55F
#TUMALO 3W      N/A         67  46  47  NW5     29.53F

$$

ORZ044-290710-
LOWER COLUMBIA BASIN...OREGON

CITY            SKY/WX      TMP DP  RH  WIND    PRES   REMARKS
HERMISTON       CLOUDY      71  53  53  S6      29.68F
6HR MIN TEMP:   71; 6HR MAX TEMP:   88;

#BOARDMAN SCHOOLN/A         73  56  55  CALM    29.69F
#BOARDMAN 8SW   N/A         73  57  57  NW6     29.61F
#ECHO 8SW       N/A         68  48  49  S1      29.69F
#IONE SCHOOL    N/A         69  48  47  CALM    29.67F
#IRRIGON 4NW    N/A         73  55  53  CALM    N/A
#UMATILLA SCHOOLN/A         71  61  71  CALM    29.72F
#UMATILLA       N/A         77  50  39  CALM    29.58F
$$

ORZ507-290710-
NORTHERN FOOTHILLS OF THE BLUES

CITY            SKY/WX      TMP DP  RH  WIND    PRES   REMARKS
PENDLETON AIRPT CLOUDY      72  46  39  S5      29.74F
6HR MIN TEMP:   69; 6HR MAX TEMP:   87;

#ADAMS 3WNW     N/A         71  45  39  CALM    29.67S
#ATHENA         N/A         70  46  42  CALM    29.70S
#CAYUSE         N/A         73  47  40  CALM    29.65F
#HELIX SCHOOL   N/A         73  47  40  N1      29.66F
#HELIX 3N       N/A         70  44  39  N1      29.74F
#HOLDMAN 5SE    N/A         70  46  42  SE3     29.73F
#HOLDMAN 6E     N/A         72  44  37  CALM    29.47F
#M-F GROVE ELEM N/A         76  42  30  CALM    29.71F
#M-FREEWATER 5SEN/A         71  51  49  CALM    29.74S
#PENDLETON DNTN N/A         71  44  38  CALM    29.75F
#PDT AQUATIC CTRN/A         72  42  34  CALM    29.74S
#PDT SUNRIDGE   N/A         71  47  42  CALM    29.73F
#PENDLETON 7NW  N/A         70  49  47  SE2     32.07S
#TUTUILLA       N/A         71  47  42  CALM    29.69F
#UMAPINE 2E     N/A         72  56  57  SW1     29.67F
#WESTON SCHOOL  N/A         76  40  27  W1      29.68F

$$

ORZ508-290710-
SOUTHERN FOOTHILLS OF THE BLUES

CITY            SKY/WX      TMP DP  RH  WIND    PRES   REMARKS
#AJAX           N/A         71  40  32  N3      29.71F
#CONDON SCHOOL  N/A         69  47  45  NE7     29.75F
#CONDON 5W      N/A         68  43  40  E13     29.77F
#FOSSIL SCHOOL  N/A         66  51  58  CALM    29.94S
#HEPPNER EOC    N/A         71  47  42  SE1     29.58F
#HEPPNER 4NE    N/A         71  45  39  E10     29.63F
#LEXINGTON 2SE  N/A         70  49  47  CALM    29.68F
#OLEX 4N        N/A         70  45  41  CALM    29.69F
#RUGGS 5NE      N/A         68  43  40  E6      29.94F
#RUGGS 2SW      N/A         68  46  45  SW6     29.65F

$$

ORZ502-503-290710-
BLUE MOUNTAINS

CITY            SKY/WX      TMP DP  RH  WIND    PRES   REMARKS
MEACHAM         MOCLDY      71  40  32  CALM    29.88F
6HR MIN TEMP:   69; 6HR MAX TEMP:   81;

#HEPPNER 15SE   N/A         63  43  48  CALM    29.76F
#LONG CREEK HS  N/A         76  42  30  CALM    29.79F
#PIKES PEAK     N/A         77  40  26  S3      27.99S
#TOLLGATE       N/A         64  41  43  CALM    29.84F
#TROY SCHOOL    N/A         67  51  56  CALM    29.59F
#UKIAH          N/A         61  45  56  CALM    29.72F
#WESTON 4E      N/A         75  42  31  SE10    29.61F
$$

ORZ505-290710-
JOHN DAY BASIN

CITY            SKY/WX      TMP DP  RH  WIND    PRES   REMARKS
JOHN DAY        MOCLDY      73  40  30  E7      29.85F
#JOHN DAY KJDY  N/A         66  64  93  CALM    29.91F
#DAYVILLE SCHOOLN/A         75  40  28  CALM    29.76F
#MITCHELL       N/A         68  47  47  CALM    29.97F
#MITCHELL 8NW   N/A         72  41  33  E2      29.81F
#MONUMENT HS    N/A         74  44  34  SE1     29.75F
#MT. VERNON 5SE N/A         72  41  33  CALM    29.83F
#SPRAY SCHOOL   N/A         70  N/A N/A CALM    N/A
$$

ORZ506-290710-
OCHOCO AND JOHN DAY HIGHLANDS

CITY            SKY/WX      TMP DP  RH  WIND    PRES   REMARKS
#PINE MTN OBS   N/A         65  37  35  S22G35  N/A
#PRAIRIE CITY   N/A         72  42  34  CALM    29.68F
#SENECA         N/A         63  N/A N/A CALM    N/A
#SENECA 9NW     N/A         59  40  49  CALM    29.70F
$$

ORZ049-290710-
GRANDE RONDE VALLEY

CITY            SKY/WX      TMP DP  RH  WIND    PRES   REMARKS
LA GRANDE       CLOUDY      64  41  43  N3      29.84F
#COVE           N/A         66  50  56  W1      29.88F
#COVE SCHOOL    N/A         67  47  49  CALM    29.89F
#COVE 6NW       N/A         63  51  65  CALM    29.76F
#ELGIN 3N       N/A         68  42  39  CALM    29.83F
#ELGIN 1E       N/A         69  46  44  CALM    N/A
#ISLAND CITY 4N N/A         66  61  84  CALM    29.65F
#LADD CYN DOT   N/A         70  46  42  SE14    N/A
#LA GRANDE ELEM N/A         69  47  45  CALM    29.87F
#UNION 1S       N/A         66  46  48  CALM    29.63F
$$

ORZ050-290710-
WALLOWA COUNTY

CITY            SKY/WX      TMP DP  RH  WIND    PRES   REMARKS
#ENTERPRISE HS  N/A         60  49  67  CALM    29.93F
#IMNAHA SCHOOL  N/A         69  46  44  CALM    29.84F
#IMNAHA 10S     N/A         67  41  39  S1      30.06S
#JOSEPH 3N      N/A         57  46  67  CALM    29.95F
#JOSEPH 3W      N/A         65  41  41  SW1     29.81F
#LOSTINE        N/A         62  48  60  CALM    29.56F
#MT HOWARD 8000 N/A         62  33  34  S9      30.21F
#PROMISE 1S     N/A         64  44  48  CALM    29.83F
#WALLOWA SCHOOL N/A         64  50  60  CALM    29.85F



$$



USA.gov is the U.S. government's official web portal to all federal, state and local government web resources and services.